COSMOS 1333

Satellite information

Favourite Embed

Satellite Type and Status

PAYLOADIN ORBIT

Key statistics

Satellite COSMOS 1333 at a glance.

Uptime

15880

Days in orbit

Revolutions

≈ 13.7

Per day

Orbit

LEO

Low Earth Orbit

Inclination

82.9

Latest

Satellite identification and parameters

Extended collection of information and parameters for COSMOS 1333.

Object identification

Identified? True

Debris? False

Object name: COSMOS 1333

International designator: 1982-003A

Object number (NORAD): 13033

Object ID (CCSDS): 13033

Country: COMMONWEALTH OF INDEPENDENT STATES (CIS)

Current information (Y/N): Y

RCS size: LARGE

Orbital parameters

Period: 104.847 minutes

Inclination: 82.941 deg

SMA: 7365.402 km

Apoapsis: 1012.008 km

Periapsis: 962.525 km

RAAN: 60.4905 deg

Eccentricy: 0.0033591

Argument of periapsis: 71.4296 deg

Mean anomaly: 355.8716 deg

Mean motion: 13.73435021 rev/day

Mean motion (dot): 0.00000024 rev/day2

B* drag term: 0.0000093066 1/REarth

Two-line elements (TLE)

Creation date: July 6, 2025, 10:26 p.m.

Reference frame: TEME

Reference center: EARTH

Epoch: July 6, 2025, 6 p.m. UTC

TLE line 0: 0 COSMOS 1333

TLE line 1: 1 13033U 82003A 25187.75053733 .00000024 00000-0 93066-5 0 9994

TLE line 2: 2 13033 82.9410 60.4905 0033591 71.4296 355.8716 13.73435021179056

Live tracking on map

Real-time ground track for satellite COSMOS 1333.

In-orbit conjunctions

A list of the most updated potential collisions computed for object COSMOS 1333.

Target Orbit TCA Probability of collision Miss distance Type
CALSPHERE 1 SSO 2025-03-23 15:08:24 0.0001354822 890.0 (m) PAYLOAD

Associated space launch

Navigation satellite providing location information for the Tsiklon-B navigation system

COSMOS 1333 was lifted into orbit during the mission ‘Kosmos-3M | Parus 30’, on board a Kosmos-3M space rocket.

The launch took place on Jan. 14, 1982, 7:51 a.m. from 132/2.

For more information about the launch, click the button.

Launch to space Kosmos-3M | Parus 30
Kosmos-3M | Parus 30

Agency: N/A

Status: Launch Successful

Launch date: Jan. 14, 1982, 7:51 a.m. UTC

Rocket: Kosmos-3M

Launch pad: 132/2

Location: Plesetsk Cosmodrome, Russian Federation

...

Latest news about this satellite

There are no fresh news available about this satellite. Check back as we update our databases every day.


Newsletter sign-up

Weekly statistics, charts and insights to help you stay on top of the space industry.